Estació municipal de Vilalleons (Osona, E.N.Guilleries-Savassona)

Consulta les dades en temps real de l'estació municipal de Vilalleons





Hora UTC 16:45
Temperatura 17.4 ºC
Humitat 71.0 %
Pressió 1013.2 hPa
Pluja 0.0 mm
Velocitat vent 4.8 km/h
Direcció vent SW

Webcam

Dades diàries 2026-05-08



Hora UTC (hivern +1h; estiu +2h)
Temperatura (ºC) Humitat (%) Pressió (hPa) Velocitat vent (km/h) Precipitació (mm)
Hora UTC Aire Humitat Pressió Vel. Dir. Vel. Max Dir. Intent. màx 5 min.
00:05 8.1 93.0 1013.4 0.0 N 0.0 0.0
00:10 8.2 94.0 1013.4 0.0 N 0.0 0.0
00:15 8.1 93.0 1013.2 0.0 N 0.0 0.0
00:20 8.1 93.0 1013.4 0.0 N 0.0 0.0
00:25 8.1 94.0 1013.4 0.0 N 0.0 0.0
00:30 8.1 94.0 1013.3 0.0 N 0.0 0.0
00:35 8.1 94.0 1013.3 0.0 N 0.0 0.0
00:40 8.1 94.0 1013.3 0.0 N 0.0 0.0
00:45 8.2 94.0 1013.4 0.0 N 0.0 0.0
00:50 8.1 94.0 1013.4 0.0 N 0.0 0.0
00:55 8.1 94.0 1013.3 0.0 N 0.0 0.0
01:00 7.9 94.0 1013.1 0.0 N 0.0 0.0
01:05 7.9 94.0 1013.1 0.0 N 0.0 0.0
01:10 7.9 94.0 1013.0 0.0 N 0.0 0.0
01:15 7.8 94.0 1013.1 0.0 ESE 0.0 0.0
01:20 7.8 94.0 1013.1 0.0 ESE 0.0 0.0
01:25 7.8 94.0 1013.2 0.0 N 0.0 0.0
01:30 7.8 94.0 1013.0 0.0 N 0.0 0.0
01:35 7.7 94.0 1013.0 0.0 N 0.0 0.0
01:40 7.6 94.0 1013.0 0.0 N 0.0 0.0
01:45 7.6 94.0 1012.9 0.0 ESE 0.0 0.0
01:50 7.6 94.0 1012.9 0.0 ESE 0.0 0.0
01:55 7.4 94.0 1012.9 0.0 N 0.0 0.0
02:00 7.3 94.0 1012.9 0.0 ESE 0.0 0.0
02:05 7.3 94.0 1012.7 0.0 ESE 0.0 0.0
02:10 7.3 94.0 1012.8 0.0 N 0.0 0.0
02:15 7.2 94.0 1012.6 0.0 ESE 0.0 0.0
02:20 7.1 94.0 1012.6 0.0 ESE 0.0 0.0
02:25 7.1 94.0 1012.7 0.0 N 0.0 0.0
02:30 7.1 94.0 1012.9 0.0 ESE 0.0 0.0
02:35 7.1 94.0 1012.9 0.0 N 0.0 0.0
02:40 7.1 94.0 1012.8 0.0 ESE 0.0 0.0
02:45 6.9 94.0 1012.8 0.0 N 0.0 0.0
02:50 6.8 94.0 1012.8 0.0 N 0.0 0.0
02:55 6.8 94.0 1012.8 0.0 N 0.0 0.0
03:00 6.8 94.0 1012.6 0.0 N 0.0 0.0
03:05 6.7 94.0 1012.7 0.0 N 0.0 0.0
03:10 6.6 94.0 1012.5 0.0 N 0.0 0.0
03:15 6.5 94.0 1012.6 0.0 ESE 0.0 0.0
03:20 6.4 94.0 1012.5 0.0 ESE 0.0 0.0
03:25 6.3 94.0 1012.4 0.0 ESE 0.0 0.0
03:30 6.3 94.0 1012.5 0.0 N 0.0 0.0
03:35 6.1 94.0 1012.3 0.0 N 0.0 0.0
03:40 6.1 94.0 1012.4 0.0 ESE 0.0 0.0
03:45 6.0 94.0 1012.4 0.0 ESE 0.0 0.0
03:50 5.8 94.0 1012.4 0.0 ESE 0.0 0.0
03:55 5.8 94.0 1012.4 0.0 ESE 0.0 0.0
04:00 5.8 94.0 1012.5 0.0 ESE 0.0 0.0
04:05 5.8 94.0 1012.5 0.0 N 0.0 0.0
04:10 5.6 94.0 1012.5 0.0 ESE 0.0 0.0
04:15 5.6 94.0 1012.6 0.0 N 0.0 0.0
04:20 5.4 94.0 1012.5 0.0 N 0.0 0.0
04:25 5.3 94.0 1012.6 0.0 ESE 0.0 0.0
04:30 5.3 94.0 1012.6 0.0 ESE 0.0 0.0
04:35 5.3 94.0 1012.6 0.0 N 0.0 0.0
04:40 5.4 95.0 1012.7 0.0 ESE 0.0 0.0
04:45 5.3 95.0 1012.7 0.0 ESE 0.0 0.0
04:50 5.3 95.0 1012.8 0.0 N 0.0 0.0
04:55 5.3 95.0 1012.8 0.0 N 0.0 0.0
05:00 5.2 95.0 1012.8 0.0 ESE 0.0 0.0
05:05 5.2 95.0 1012.7 0.0 ESE 0.0 0.0
05:10 5.3 95.0 1012.9 0.0 N 0.0 0.0
05:15 5.3 95.0 1012.9 0.0 ESE 0.0 0.0
05:20 5.4 96.0 1013.0 0.0 ESE 0.0 0.0
05:25 5.4 96.0 1013.0 0.0 N 0.0 0.0
05:30 5.6 96.0 1013.0 0.0 N 0.0 0.0
05:35 5.6 96.0 1013.0 0.0 N 0.0 0.0
05:40 5.6 96.0 1013.0 0.0 N 0.0 0.0
05:45 5.7 96.0 1013.1 0.0 N 0.0 0.0
05:50 5.8 96.0 1013.2 0.0 ESE 0.0 0.0
05:55 6.0 97.0 1013.3 0.0 N 0.0 0.0
06:00 6.2 97.0 1013.4 0.0 N 0.0 0.0
06:05 6.4 97.0 1013.4 0.0 N 0.0 0.0
06:10 6.7 97.0 1013.3 0.0 ESE 0.0 0.0
06:15 6.9 98.0 1013.6 0.0 ESE 0.0 0.0
06:20 7.3 98.0 1013.6 0.0 N 0.0 0.0
06:25 7.5 98.0 1013.7 0.0 ESE 0.0 0.0
06:30 7.7 98.0 1013.7 0.0 ESE 0.0 0.0
06:35 7.9 98.0 1013.8 0.0 ESE 0.0 0.0
06:40 8.0 98.0 1013.6 0.0 ESE 0.0 0.0
06:45 8.1 98.0 1013.6 0.0 ESE 0.0 0.0
06:50 8.2 97.0 1014.0 0.0 ESE 0.0 0.0
06:55 8.3 98.0 1013.9 0.0 ESE 0.0 0.0
07:00 8.4 97.0 1013.9 0.0 NNW 0.0 0.0
07:05 8.6 98.0 1013.8 0.0 NNW 0.0 0.0
07:10 8.8 98.0 1013.7 0.0 NNW 0.0 0.0
07:15 8.9 98.0 1013.7 0.0 NNW 0.0 0.0
07:20 9.2 97.0 1013.9 0.0 NNW 0.0 0.0
07:25 9.4 97.0 1013.9 0.0 NNW 0.0 0.0
07:30 9.6 97.0 1013.9 0.0 NNW 0.0 0.0
07:35 9.9 97.0 1014.0 0.0 NNW 0.0 0.0
07:40 10.3 97.0 1013.9 0.0 W 0.0 0.0
07:45 10.6 96.0 1014.1 0.0 W 0.0 0.0
07:50 10.8 95.0 1014.0 0.0 W 0.0 0.0
07:55 11.1 94.0 1014.0 0.0 WNW 0.0 0.0
08:00 11.3 92.0 1014.0 0.0 WNW 0.0 0.0
08:05 11.6 91.0 1014.2 0.0 W 0.0 0.0
08:10 11.9 90.0 1014.3 1.6 SW 3.2 0.0
08:15 12.2 88.0 1014.0 3.2 WSW 4.8 0.0
08:20 12.4 87.0 1014.0 1.6 W 4.8 0.0
08:25 12.8 85.0 1014.1 3.2 W 4.8 0.0
08:30 13.1 82.0 1014.2 1.6 WNW 4.8 0.0
08:35 13.5 82.0 1014.2 0.0 WNW 6.4 0.0
08:40 13.9 80.0 1014.3 1.6 W 4.8 0.0
08:45 14.2 78.0 1014.3 1.6 WSW 4.8 0.0
08:50 14.6 77.0 1014.4 1.6 WSW 4.8 0.0
08:55 14.9 76.0 1014.5 1.6 WSW 6.4 0.0
09:00 15.2 75.0 1014.5 0.0 WSW 6.4 0.0
09:05 15.3 72.0 1014.5 4.8 NNW 4.8 0.0
09:10 15.6 74.0 1014.5 4.8 WSW 9.7 0.0
09:15 15.6 72.0 1014.5 0.0 WSW 8.0 0.0
09:20 15.6 72.0 1014.8 3.2 WSW 8.0 0.0
09:25 15.7 74.0 1014.6 3.2 WSW 4.8 0.0
09:30 15.8 73.0 1014.7 3.2 WSW 4.8 0.0
09:35 15.8 73.0 1014.5 1.6 WSW 4.8 0.0
09:40 15.8 74.0 1014.7 3.2 WSW 4.8 0.0
09:45 15.8 72.0 1014.8 3.2 WSW 6.4 0.0
09:50 15.8 72.0 1014.8 3.2 WSW 6.4 0.0
09:55 15.9 73.0 1014.6 1.6 WSW 4.8 0.0
10:00 15.9 71.0 1014.6 0.0 WSW 4.8 0.0
10:05 16.1 68.0 1014.7 4.8 WNW 11.3 0.0
10:10 16.2 69.0 1014.6 1.6 WSW 11.3 0.0
10:15 16.4 68.0 1014.6 3.2 SW 6.4 0.0
10:20 16.7 66.0 1014.6 4.8 WSW 8.0 0.0
10:25 16.7 65.0 1014.6 3.2 WSW 8.0 0.0
10:30 16.8 64.0 1014.6 0.0 SW 8.0 0.0
10:35 16.9 65.0 1014.5 0.0 SW 6.4 0.0
10:40 17.1 65.0 1014.5 0.0 NNW 4.8 0.0
10:45 17.2 65.0 1014.4 4.8 SW 8.0 0.0
10:50 17.3 62.0 1014.6 3.2 W 9.7 0.0
10:55 17.2 60.0 1014.4 3.2 NNW 9.7 0.0
11:00 16.9 65.0 1014.2 1.6 N 6.4 0.0
11:05 17.1 64.0 1014.5 3.2 N 9.7 0.0
11:10 17.2 64.0 1014.3 3.2 SW 9.7 0.0
11:15 17.2 65.0 1014.3 3.2 SW 4.8 0.0
11:20 17.1 64.0 1014.0 3.2 WSW 8.0 0.0
11:25 17.0 65.0 1014.0 4.8 W 9.7 0.0
11:30 17.1 67.0 1014.1 0.0 WSW 9.7 0.0
11:35 17.1 66.0 1014.0 1.6 W 6.4 0.0
11:40 17.1 67.0 1014.0 1.6 N 6.4 0.0
11:45 17.1 65.0 1014.1 1.6 W 4.8 0.0
11:50 17.0 66.0 1013.9 1.6 W 3.2 0.0
11:55 16.8 66.0 1014.0 1.6 NNW 4.8 0.0
12:00 17.1 66.0 1014.1 3.2 WSW 4.8 0.0
12:05 17.6 69.0 1014.0 3.2 SW 6.4 0.0
12:10 17.8 67.0 1014.0 3.2 WNW 11.3 0.0
12:15 17.6 67.0 1013.9 3.2 SW 11.3 0.0
12:20 17.3 70.0 1014.0 3.2 WSW 11.3 0.0
12:25 16.9 69.0 1014.1 3.2 WSW 11.3 0.0
12:30 16.5 71.0 1014.1 3.2 W 12.9 0.0
12:35 16.2 71.0 1013.8 17.7 SW 17.7 0.0
12:40 15.9 73.0 1013.9 4.8 S 17.7 0.0
12:45 15.9 73.0 1014.0 3.2 S 12.9 0.0
12:50 16.1 72.0 1014.0 3.2 S 12.9 0.0
12:55 16.4 71.0 1014.1 0.0 SE 11.3 0.0
13:00 16.7 72.0 1013.9 8.0 WSW 8.0 0.0
13:05 17.1 72.0 1014.0 3.2 NW 12.9 0.0
13:10 17.1 71.0 1014.1 1.6 W 12.9 0.0
13:15 16.9 71.0 1014.0 6.4 SW 9.7 0.0
13:20 16.6 71.0 1014.1 6.4 ESE 16.1 0.0
13:25 16.3 70.0 1014.2 12.9 W 16.1 0.0
13:30 16.2 70.0 1014.1 4.8 SSW 14.5 0.0
13:35 16.1 69.0 1014.2 3.2 SSW 16.1 0.0
13:40 16.1 71.0 1014.1 8.0 SSW 16.1 0.0
13:45 16.3 71.0 1014.2 8.0 SSE 11.3 0.0
13:50 16.5 70.0 1014.2 1.6 SSW 11.3 0.0
13:55 16.8 68.0 1014.4 4.8 SE 11.3 0.0
14:00 16.8 67.0 1014.3 6.4 SSW 9.7 0.0
14:05 16.7 68.0 1014.3 6.4 SE 11.3 0.0
14:10 16.6 69.0 1014.3 1.6 SW 11.3 0.0
14:15 16.6 67.0 1014.2 9.7 SW 12.9 0.0
14:20 16.8 69.0 1014.1 3.2 SW 12.9 0.0
14:25 16.9 68.0 1014.2 3.2 W 9.7 0.0
14:30 17.2 67.0 1013.9 3.2 WSW 11.3 0.0
14:35 17.5 68.0 1013.8 1.6 S 11.3 0.0
14:40 17.6 67.0 1013.6 0.0 SW 6.4 0.0
14:45 17.8 68.0 1013.5 1.6 SW 6.4 0.0
14:50 17.9 63.0 1013.4 0.0 NW 4.8 0.0
14:55 18.1 66.0 1013.3 1.6 N 6.4 0.0
15:00 18.1 65.0 1013.3 0.0 N 6.4 0.0
15:05 17.8 66.0 1013.2 3.2 NW 6.4 0.0
15:10 17.6 67.0 1013.1 6.4 SE 8.0 0.0
15:15 17.4 66.0 1013.2 4.8 SE 9.7 0.0
15:20 17.2 66.0 1013.3 0.0 SE 9.7 0.0
15:25 17.1 68.0 1013.3 0.0 SE 1.6 0.0
15:30 17.1 71.0 1013.2 0.0 SE 0.0 0.0
15:35 17.0 69.0 1013.2 0.0 SE 0.0 0.0
15:40 16.9 68.0 1013.1 0.0 W 0.0 0.0
15:45 16.8 72.0 1013.1 0.0 N 0.0 0.0
15:50 16.6 74.0 1013.1 0.0 N 0.0 0.0
15:55 16.4 75.0 1013.0 0.0 E 4.8 0.0
16:00 16.3 75.0 1013.0 1.6 SSE 8.0 0.0
16:05 16.2 73.0 1013.2 12.9 SE 12.9 0.0
16:10 16.1 73.0 1013.2 8.0 SE 12.9 0.0
16:15 16.0 73.0 1013.2 6.4 SSW 11.3 0.0
16:20 16.1 74.0 1013.2 4.8 SSW 11.3 0.0
16:25 16.3 72.0 1013.3 4.8 S 11.3 0.0
16:30 16.7 73.0 1013.1 6.4 SW 11.3 0.0
16:35 17.0 73.0 1013.1 3.2 SSE 9.7 0.0
16:40 17.4 71.0 1013.2 6.4 W 8.0 0.0
16:45 17.4 71.0 1013.2 4.8 SW 12.9 0.0
Màxima 18.1 98.0 1014.8 17.7 SW 17.7 0.0
Mínima 5.2 60.0 1012.3
Total 0.0